SCP
0 -0 0 0 0 0 -0 -0 0 0 0 0 0 0 0 -0 -0 -0 -0 -0 -0 -0 -0 -0 -0 -1 -0 -1 -1 -0 -0 -0
0 -0 0 0 0 0 0 0 0 -0 0 0 0 0 0 0 -0 -0 -0 -0 -0 -0 -0 -0 -0 -0 -0 -0 -0 -0 -0 -0
0 0 -0 0 0 0 0 0 0 -0 -0 -0 0 0 0 -0 -0 -0 -0 -0 -0 -0 -0 -0 -0 -0 -0 -0 -0 -0 -0 -0
-0 0 0 -0 0 0 0 0 0 0 0 0 0 0 0 0 0 -0 -0 -0 -0 -0 -0 -0 -0 -0 -0 -0 -0 -0 -0 -0
0 0 0 0 0 0 0 0 0 0 0 0 0 0 0 0 0 0 0 0 0 -0 -0 -0 -0 -0 -0 -0 -0 -0 -0 -0
0 0 0 0 0 0 0 0 0 -0 0 0 0 0 0 0 0 0 0 0 0 0 0 0 0 0 -0 -0 -0 -0 -0 -0
0 0 0 0 0 0 0 0 0 0 0 0 0 0 0 0 0 0 0 0 0 0 0 0 0 0 0 0 0 0 0 -0
0 0 0 0 0 0 0 0 0 0 0 0 0 0 0 0 0 0 0 0 0 0 0 0 0 0 0 0 0 0 0 0
0 0 0 0 0 0 0 0 0 0 0 0 0 0 0 0 0 0 0 0 0 0 0 0 0 0 0 0 0 0 0 0
0 0 0 0 0 0 0 0 0 0 0 0 0 0 0 0 0 0 0 0 0 0 0 0 0 0 0 0 0 0 0 0
0 0 0 0 0 0 0 0 0 0 0 0 0 0 0 0 0 0 0 0 0 0 0 0 0 0 0 0 0 0 0 0
0 0 0 0 0 0 0 0 0 0 0 1 0 0 0 0 0 0 0 0 0 0 1 1 0 0 0 0 0 0 0 0
0 0 0 0 -0 0 0 0 0 0 0 0 1 0 0 0 0 0 0 0 0 1 1 1 0 0 0 0 0 0 0 0
0 0 0 0 0 0 0 0 0 0 0 0 0 0 0 0 0 0 0 0 0 1 1 0 0 1 0 0 0 0 0 0
0 0 0 0 0 0 0 0 0 0 0 0 0 0 0 0 0 0 1 1 1 1 1 1 1 1 0 0 0 0 0 0
0 0 0 0 0 0 0 0 0 0 0 0 0 0 0 0 0 0 0 1 1 1 1 1 1 1 0 0 0 0 0 0
0 0 0 0 0 0 0 0 0 0 0 0 0 0 0 0 0 0 0 0 1 1 1 2 1 1 0 0 0 0 0 0
0 0 0 0 0 0 0 0 0 0 0 0 0 0 0 0 0 0 0 1 1 1 1 1 1 1 1 1 0 0 0 0
0 0 0 0 0 0 0 0 0 0 0 0 0 0 0 0 0 1 0 1 1 1 1 2 1 1 2 1 0 0 0 0
0 0 0 0 0 0 0 0 0 0 0 0 0 0 0 0 0 1 1 0 1 1 1 1 1 1 2 1 1 1 0 0
Wind_Speed_500mb
0 3 9 4 7 7 13 23 19 9 11 7 6 6 12 4 22 64 72 66 63 60 56 52 46 43 41 37 34 31 28 25
8 21 8 5 6 11 14 8 11 7 10 8 14 8 9 20 27 65 74 66 64 60 56 51 48 43 40 37 34 31 28 25
7 21 8 6 7 14 14 16 23 13 5 7 14 15 15 20 41 69 78 69 63 59 57 53 47 44 41 37 34 31 27 24
22 21 10 6 7 10 13 15 26 11 9 8 16 15 7 16 50 73 78 70 62 58 54 53 49 43 39 36 33 30 27 23
8 11 12 8 2 3 14 23 18 19 7 6 11 8 7 14 43 73 74 70 65 59 55 51 48 45 41 38 35 30 26 22
9 13 14 1 9 11 16 16 36 4 5 5 8 11 8 19 46 68 76 71 67 63 60 55 52 46 43 39 35 32 28 23
14 13 6 1 7 13 19 22 26 11 14 17 18 21 23 28 45 63 73 73 70 66 63 59 53 49 44 40 37 33 29 27
6 9 5 13 9 18 16 28 11 16 21 17 13 25 32 33 52 62 74 77 74 70 67 62 57 53 49 45 41 38 34 32
10 17 12 16 14 5 16 16 10 28 26 19 19 28 32 35 46 62 71 75 75 72 69 65 63 58 53 50 45 41 38 36
8 15 8 13 7 13 21 31 38 41 33 26 30 33 35 35 42 60 68 73 72 74 72 70 68 63 57 53 48 45 43 39
21 18 22 17 23 14 22 32 33 37 25 18 24 34 32 30 35 51 63 68 71 71 73 75 72 68 64 58 52 49 46 44
9 14 12 14 14 9 12 21 20 24 20 18 20 26 29 30 34 49 56 66 70 72 73 72 74 73 70 63 57 54 50 49
14 10 10 17 14 13 7 14 21 20 22 20 26 25 32 32 30 33 50 57 66 65 66 67 70 73 71 66 62 59 55 52
6 4 2 12 18 11 4 18 19 20 19 22 25 33 39 40 40 40 49 57 60 60 63 60 59 67 71 67 64 63 60 58
6 1 6 3 7 15 16 12 16 14 13 14 21 18 24 36 49 56 54 61 62 66 68 61 57 61 47 38 63 70 67 63
9 6 7 11 22 18 19 16 18 13 11 11 12 17 20 28 41 49 51 54 61 69 73 72 66 59 43 33 36 72 70 69
9 10 7 8 15 18 20 23 14 7 11 13 11 15 18 27 37 47 51 55 58 64 69 75 81 73 70 70 65 65 71 72
15 7 13 7 18 18 14 10 16 15 17 21 19 15 17 20 22 36 45 50 55 62 68 70 83 82 78 74 77 72 71 74
15 1 11 9 8 4 13 22 18 23 22 25 31 32 27 28 23 20 33 46 53 59 64 68 76 86 87 83 82 79 79 76
16 5 6 4 6 8 4 10 21 30 32 35 37 34 34 34 33 24 23 41 46 46 58 66 71 82 93 91 89 84 82 78
Wind_Direction_500mb
73 213 255 99 46 329 287 273 302 290 232 223 198 246 238 215 189 184 185 182 177 177 178 177 178 176 175 173 172 171 168 163
230 239 212 232 4 326 328 352 5 296 249 218 226 244 241 258 189 183 186 185 180 180 182 182 180 181 179 179 178 175 172 170
230 242 254 233 275 303 320 315 342 315 273 227 245 263 259 230 182 183 186 186 184 184 184 184 187 185 184 184 183 181 179 178
234 237 263 275 253 283 305 313 339 7 266 240 255 273 252 195 179 183 185 185 188 188 191 188 190 192 190 190 190 189 187 184
242 262 273 267 310 285 322 310 355 327 281 280 262 251 174 186 181 181 185 188 188 192 193 195 195 196 196 194 195 196 195 193
224 245 268 154 340 335 321 316 332 305 299 355 319 205 164 175 181 182 186 191 193 195 195 198 199 201 202 200 200 200 201 199
219 196 224 266 3 327 310 294 316 330 290 282 305 213 176 181 187 188 191 195 197 199 202 200 204 204 206 205 204 205 205 205
216 205 235 312 326 319 314 306 285 308 324 278 254 216 200 199 195 197 198 200 202 204 205 206 207 209 209 210 209 209 209 211
213 221 253 287 292 271 294 295 262 315 318 297 269 220 213 221 216 208 205 204 207 209 212 211 212 213 215 215 214 214 214 215
252 233 229 268 274 275 264 267 293 300 294 263 262 244 242 238 227 212 211 210 213 212 216 217 217 217 221 223 222 221 221 220
241 249 254 268 258 260 260 287 306 309 285 269 254 244 249 244 231 223 219 216 216 220 221 222 223 223 223 226 227 228 226 226
251 252 221 222 250 183 266 296 314 322 315 274 264 252 261 254 241 233 224 220 220 222 225 229 227 229 229 229 231 231 229 229
218 226 229 202 239 228 273 322 317 323 320 288 273 271 263 263 252 240 230 227 225 226 231 234 231 237 234 235 237 237 234 233
126 171 299 205 241 253 137 336 317 303 285 287 273 271 276 271 261 256 242 234 229 230 232 233 231 236 239 239 243 244 240 237
275 342 132 240 255 265 317 321 300 294 298 302 309 285 274 273 267 269 263 249 238 232 231 231 230 231 235 257 249 249 245 241
233 134 294 284 265 267 290 304 292 323 331 327 333 317 302 284 261 257 260 257 248 241 236 232 229 229 214 210 245 243 242 243
255 247 269 263 265 287 289 287 306 344 1 340 320 326 324 311 266 248 251 252 253 245 239 237 229 227 220 214 216 238 235 235
299 216 213 267 283 294 297 61 63 29 2 346 336 320 323 344 302 249 242 252 254 252 247 241 238 234 231 227 233 239 238 239
258 128 237 257 229 318 99 98 62 34 5 350 344 334 327 327 340 298 265 246 252 258 257 250 242 239 236 237 235 239 236 234
248 234 250 256 230 282 112 120 40 16 6 353 347 341 335 327 322 321 285 261 246 251 256 258 252 245 239 236 238 242 238 234
Wind_Speed_850mb
0 3 9 4 7 7 13 23 19 9 11 7 6 6 12 4 22 64 72 66 63 60 56 52 46 43 41 37 34 31 28 25
8 21 8 5 6 11 14 8 11 7 10 8 14 8 9 20 27 65 74 66 64 60 56 51 48 43 40 37 34 31 28 25
7 21 8 6 7 14 14 16 23 13 5 7 14 15 15 20 41 69 78 69 63 59 57 53 47 44 41 37 34 31 27 24
22 21 10 6 7 10 13 15 26 11 9 8 16 15 7 16 50 73 78 70 62 58 54 53 49 43 39 36 33 30 27 23
8 11 12 8 2 3 14 23 18 19 7 6 11 8 7 14 43 73 74 70 65 59 55 51 48 45 41 38 35 30 26 22
9 13 14 1 9 11 16 16 36 4 5 5 8 11 8 19 46 68 76 71 67 63 60 55 52 46 43 39 35 32 28 23
14 13 6 1 7 13 19 22 26 11 14 17 18 21 23 28 45 63 73 73 70 66 63 59 53 49 44 40 37 33 29 27
6 9 5 13 9 18 16 28 11 16 21 17 13 25 32 33 52 62 74 77 74 70 67 62 57 53 49 45 41 38 34 32
10 17 12 16 14 5 16 16 10 28 26 19 19 28 32 35 46 62 71 75 75 72 69 65 63 58 53 50 45 41 38 36
8 15 8 13 7 13 21 31 38 41 33 26 30 33 35 35 42 60 68 73 72 74 72 70 68 63 57 53 48 45 43 39
21 18 22 17 23 14 22 32 33 37 25 18 24 34 32 30 35 51 63 68 71 71 73 75 72 68 64 58 52 49 46 44
9 14 12 14 14 9 12 21 20 24 20 18 20 26 29 30 34 49 56 66 70 72 73 72 74 73 70 63 57 54 50 49
14 10 10 17 14 13 7 14 21 20 22 20 26 25 32 32 30 33 50 57 66 65 66 67 70 73 71 66 62 59 55 52
6 4 2 12 18 11 4 18 19 20 19 22 25 33 39 40 40 40 49 57 60 60 63 60 59 67 71 67 64 63 60 58
6 1 6 3 7 15 16 12 16 14 13 14 21 18 24 36 49 56 54 61 62 66 68 61 57 61 47 38 63 70 67 63
9 6 7 11 22 18 19 16 18 13 11 11 12 17 20 28 41 49 51 54 61 69 73 72 66 59 43 33 36 72 70 69
9 10 7 8 15 18 20 23 14 7 11 13 11 15 18 27 37 47 51 55 58 64 69 75 81 73 70 70 65 65 71 72
15 7 13 7 18 18 14 10 16 15 17 21 19 15 17 20 22 36 45 50 55 62 68 70 83 82 78 74 77 72 71 74
15 1 11 9 8 4 13 22 18 23 22 25 31 32 27 28 23 20 33 46 53 59 64 68 76 86 87 83 82 79 79 76
16 5 6 4 6 8 4 10 21 30 32 35 37 34 34 34 33 24 23 41 46 46 58 66 71 82 93 91 89 84 82 78
Wind_Direction_850mb
73 213 255 99 46 329 287 273 302 290 232 223 198 246 238 215 189 184 185 182 177 177 178 177 178 176 175 173 172 171 168 163
230 239 212 232 4 326 328 352 5 296 249 218 226 244 241 258 189 183 186 185 180 180 182 182 180 181 179 179 178 175 172 170
230 242 254 233 275 303 320 315 342 315 273 227 245 263 259 230 182 183 186 186 184 184 184 184 187 185 184 184 183 181 179 178
234 237 263 275 253 283 305 313 339 7 266 240 255 273 252 195 179 183 185 185 188 188 191 188 190 192 190 190 190 189 187 184
242 262 273 267 310 285 322 310 355 327 281 280 262 251 174 186 181 181 185 188 188 192 193 195 195 196 196 194 195 196 195 193
224 245 268 154 340 335 321 316 332 305 299 355 319 205 164 175 181 182 186 191 193 195 195 198 199 201 202 200 200 200 201 199
219 196 224 266 3 327 310 294 316 330 290 282 305 213 176 181 187 188 191 195 197 199 202 200 204 204 206 205 204 205 205 205
216 205 235 312 326 319 314 306 285 308 324 278 254 216 200 199 195 197 198 200 202 204 205 206 207 209 209 210 209 209 209 211
213 221 253 287 292 271 294 295 262 315 318 297 269 220 213 221 216 208 205 204 207 209 212 211 212 213 215 215 214 214 214 215
252 233 229 268 274 275 264 267 293 300 294 263 262 244 242 238 227 212 211 210 213 212 216 217 217 217 221 223 222 221 221 220
241 249 254 268 258 260 260 287 306 309 285 269 254 244 249 244 231 223 219 216 216 220 221 222 223 223 223 226 227 228 226 226
251 252 221 222 250 183 266 296 314 322 315 274 264 252 261 254 241 233 224 220 220 222 225 229 227 229 229 229 231 231 229 229
218 226 229 202 239 228 273 322 317 323 320 288 273 271 263 263 252 240 230 227 225 226 231 234 231 237 234 235 237 237 234 233
126 171 299 205 241 253 137 336 317 303 285 287 273 271 276 271 261 256 242 234 229 230 232 233 231 236 239 239 243 244 240 237
275 342 132 240 255 265 317 321 300 294 298 302 309 285 274 273 267 269 263 249 238 232 231 231 230 231 235 257 249 249 245 241
233 134 294 284 265 267 290 304 292 323 331 327 333 317 302 284 261 257 260 257 248 241 236 232 229 229 214 210 245 243 242 243
255 247 269 263 265 287 289 287 306 344 1 340 320 326 324 311 266 248 251 252 253 245 239 237 229 227 220 214 216 238 235 235
299 216 213 267 283 294 297 61 63 29 2 346 336 320 323 344 302 249 242 252 254 252 247 241 238 234 231 227 233 239 238 239
258 128 237 257 229 318 99 98 62 34 5 350 344 334 327 327 340 298 265 246 252 258 257 250 242 239 236 237 235 239 236 234
248 234 250 256 230 282 112 120 40 16 6 353 347 341 335 327 322 321 285 261 246 251 256 258 252 245 239 236 238 242 238 234